QPF
0.00 0.01 0.01 0.00 0.00 0.01 0.02 0.01 0.01 0.01 0.01 0.01 0.01 0.01 0.01 0.01 0.01 0.01 0.01 0.01 0.00 0.00 0.01 0.01 0.02 0.02 0.01 0.01 0.01 0.00 0.01 0.01 0.01 0.01 0.02 0.03 0.04 0.04 0.03 0.02 0.02 0.02 0.02 0.02
0.00 0.00 0.00 0.00 0.00 0.01 0.01 0.01 0.01 0.01 0.01 0.01 0.01 0.01 0.01 0.01 0.01 0.02 0.01 0.01 0.01 0.01 0.01 0.03 0.02 0.02 0.02 0.02 0.01 0.01 0.01 0.02 0.03 0.03 0.04 0.05 0.05 0.03 0.02 0.02 0.02 0.03 0.03 0.02
0.00 0.00 0.00 0.01 0.00 0.01 0.01 0.01 0.01 0.01 0.01 0.01 0.00 0.00 0.00 0.01 0.01 0.02 0.02 0.01 0.01 0.01 0.01 0.02 0.01 0.01 0.01 0.01 0.01 0.01 0.02 0.03 0.04 0.05 0.06 0.06 0.06 0.04 0.02 0.02 0.02 0.02 0.03 0.03
0.01 0.00 0.01 0.00 0.00 0.01 0.01 0.01 0.02 0.02 0.01 0.01 0.00 0.00 0.00 0.00 0.01 0.01 0.01 0.01 0.01 0.01 0.01 0.01 0.01 0.01 0.02 0.01 0.01 0.01 0.02 0.02 0.03 0.04 0.04 0.04 0.03 0.03 0.02 0.01 0.01 0.02 0.02 0.02
0.02 0.01 0.01 0.00 0.01 0.01 0.01 0.02 0.01 0.02 0.01 0.01 0.00 0.00 0.00 0.00 0.01 0.01 0.01 0.01 0.01 0.01 0.01 0.01 0.01 0.01 0.01 0.01 0.01 0.00 0.01 0.01 0.02 0.03 0.03 0.03 0.03 0.02 0.02 0.02 0.01 0.02 0.02 0.02
0.03 0.02 0.02 0.01 0.01 0.01 0.02 0.03 0.02 0.01 0.01 0.01 0.00 0.00 0.00 0.00 0.01 0.00 0.00 0.00 0.00 0.00 0.00 0.01 0.01 0.01 0.01 0.01 0.01 0.01 0.01 0.01 0.01 0.02 0.02 0.02 0.03 0.02 0.02 0.01 0.01 0.01 0.01 0.02
0.03 0.03 0.02 0.01 0.01 0.01 0.03 0.04 0.03 0.01 0.01 0.01 0.01 0.01 0.01 0.00 0.00 0.01 0.00 0.00 0.00 0.01 0.01 0.01 0.01 0.01 0.01 0.01 0.01 0.01 0.01 0.01 0.01 0.01 0.01 0.02 0.04 0.05 0.03 0.02 0.02 0.02 0.01 0.01
0.05 0.07 0.03 0.01 0.01 0.02 0.03 0.02 0.02 0.01 0.01 0.01 0.01 0.01 0.00 0.00 0.00 0.01 0.01 0.00 0.00 0.00 0.00 0.01 0.01 0.01 0.00 0.00 0.01 0.01 0.01 0.01 0.01 0.01 0.01 0.02 0.02 0.03 0.04 0.05 0.04 0.03 0.02 0.01
0.08 0.05 0.02 0.01 0.02 0.02 0.02 0.01 0.01 0.01 0.01 0.01 0.01 0.00 0.00 0.00 0.00 0.01 0.01 0.00 0.00 0.00 0.00 0.01 0.01 0.01 0.01 0.01 0.01 0.01 0.01 0.01 0.01 0.01 0.01 0.02 0.03 0.03 0.03 0.04 0.04 0.04 0.04 0.04
0.04 0.01 0.01 0.01 0.02 0.02 0.02 0.02 0.01 0.01 0.01 0.01 0.00 0.00 0.00 0.00 0.00 0.00 0.01 0.00 0.00 0.00 0.00 0.00 0.01 0.01 0.01 0.02 0.03 0.02 0.01 0.01 0.01 0.01 0.01 0.02 0.03 0.03 0.03 0.04 0.05 0.06 0.06 0.04
0.01 0.00 0.01 0.01 0.01 0.02 0.02 0.01 0.01 0.00 0.01 0.01 0.00 0.00 0.00 0.00 0.00 0.00 0.00 0.00 0.00 0.00 0.00 0.00 0.01 0.00 0.01 0.02 0.03 0.02 0.02 0.02 0.03 0.02 0.02 0.02 0.02 0.03 0.03 0.03 0.04 0.03 0.03 0.03
0.01 0.00 0.00 0.01 0.01 0.01 0.01 0.01 0.01 0.00 0.00 0.00 0.00 0.00 0.00 0.00 0.00 0.00 0.01 0.00 0.00 0.00 0.00 0.00 0.00 0.00 0.00 0.01 0.01 0.02 0.02 0.02 0.02 0.02 0.02 0.02 0.02 0.02 0.03 0.04 0.05 0.04 0.03 0.02
0.00 0.00 0.00 0.00 0.01 0.01 0.01 0.00 0.00 0.00 0.00 0.01 0.01 0.01 0.01 0.01 0.00 0.00 0.00 0.00 0.01 0.01 0.01 0.01 0.01 0.00 0.00 0.01 0.01 0.02 0.01 0.01 0.01 0.01 0.02 0.02 0.02 0.02 0.02 0.02 0.03 0.04 0.03 0.03
0.00 0.00 0.00 0.00 0.01 0.01 0.01 0.01 0.01 0.01 0.00 0.00 0.01 0.01 0.01 0.01 0.01 0.00 0.00 0.00 0.01 0.01 0.01 0.01 0.01 0.01 0.00 0.00 0.01 0.01 0.01 0.01 0.01 0.01 0.01 0.01 0.02 0.02 0.02 0.02 0.01 0.02 0.02 0.02
0.00 0.00 0.00 0.00 0.01 0.01 0.01 0.01 0.01 0.01 0.01 0.00 0.01 0.01 0.01 0.01 0.01 0.01 0.00 0.00 0.00 0.00 0.01 0.01 0.02 0.01 0.01 0.01 0.01 0.01 0.01 0.02 0.01 0.01 0.01 0.02 0.01 0.02 0.02 0.02 0.02 0.02 0.03 0.04
0.01 0.01 0.01 0.01 0.01 0.01 0.02 0.02 0.02 0.01 0.01 0.01 0.01 0.01 0.01 0.01 0.01 0.01 0.00 0.00 0.00 0.00 0.01 0.02 0.02 0.02 0.01 0.01 0.01 0.01 0.02 0.03 0.03 0.02 0.03 0.03 0.03 0.02 0.02 0.03 0.04 0.03 0.03 0.03
0.01 0.01 0.01 0.01 0.01 0.01 0.02 0.02 0.02 0.02 0.02 0.02 0.01 0.01 0.01 0.00 0.00 0.00 0.00 0.00 0.00 0.00 0.00 0.01 0.01 0.02 0.02 0.01 0.01 0.01 0.02 0.03 0.04 0.04 0.03 0.04 0.03 0.03 0.02 0.02 0.02 0.02 0.02 0.02
0.01 0.02 0.02 0.01 0.01 0.01 0.01 0.02 0.02 0.02 0.01 0.01 0.01 0.01 0.01 0.00 0.00 0.00 0.00 0.00 0.00 0.00 0.00 0.00 0.01 0.01 0.02 0.02 0.02 0.02 0.03 0.03 0.03 0.03 0.03 0.03 0.03 0.03 0.02 0.02 0.02 0.02 0.02 0.01
0.02 0.02 0.02 0.01 0.01 0.01 0.01 0.01 0.01 0.01 0.01 0.01 0.01 0.01 0.01 0.01 0.00 0.00 0.00 0.00 0.00 0.00 0.00 0.00 0.01 0.01 0.01 0.02 0.02 0.02 0.02 0.03 0.03 0.03 0.03 0.03 0.03 0.03 0.03 0.02 0.02 0.01 0.01 0.01
0.02 0.02 0.01 0.01 0.00 0.00 0.00 0.00 0.00 0.01 0.01 0.01 0.01 0.00 0.00 0.00 0.00 0.00 0.00 0.00 0.00 0.00 0.01 0.01 0.01 0.01 0.01 0.01 0.01 0.01 0.01 0.02 0.02 0.03 0.03 0.04 0.04 0.04 0.03 0.02 0.01 0.01 0.01 0.01
0.02 0.01 0.01 0.01 0.01 0.00 0.00 0.00 0.01 0.01 0.01 0.01 0.01 0.01 0.00 0.00 0.00 0.00 0.00 0.00 0.00 0.00 0.00 0.00 0.01 0.01 0.01 0.01 0.01 0.01 0.01 0.01 0.01 0.01 0.02 0.02 0.02 0.03 0.04 0.03 0.01 0.01 0.00 0.00
0.02 0.01 0.01 0.01 0.01 0.01 0.01 0.01 0.01 0.01 0.01 0.01 0.01 0.01 0.00 0.00 0.00 0.00 0.01 0.01 0.01 0.01 0.00 0.01 0.01 0.01 0.01 0.02 0.01 0.01 0.01 0.01 0.01 0.01 0.01 0.02 0.02 0.02 0.04 0.04 0.03 0.01 0.01 0.01
0.02 0.01 0.01 0.01 0.01 0.01 0.01 0.01 0.01 0.01 0.01 0.01 0.01 0.01 0.00 0.00 0.00 0.00 0.01 0.01 0.01 0.01 0.01 0.01 0.01 0.01 0.02 0.02 0.02 0.02 0.02 0.02 0.01 0.01 0.01 0.02 0.02 0.02 0.02 0.03 0.03 0.02 0.01 0.01
0.01 0.01 0.01 0.01 0.01 0.01 0.01 0.01 0.01 0.01 0.01 0.01 0.01 0.00 0.00 0.00 0.00 0.00 0.00 0.01 0.01 0.01 0.01 0.01 0.01 0.01 0.01 0.01 0.02 0.02 0.02 0.02 0.01 0.01 0.01 0.02 0.02 0.02 0.02 0.02 0.02 0.01 0.01 0.01
0.02 0.01 0.01 0.01 0.01 0.01 0.02 0.02 0.01 0.01 0.01 0.01 0.01 0.00 0.00 0.00 0.00 0.00 0.01 0.01 0.01 0.01 0.01 0.01 0.01 0.01 0.01 0.01 0.01 0.01 0.01 0.01 0.01 0.01 0.02 0.02 0.02 0.01 0.01 0.01 0.01 0.01 0.02 0.02
0.03 0.02 0.01 0.01 0.01 0.01 0.02 0.02 0.02 0.02 0.02 0.01 0.01 0.00 0.00 0.00 0.00 0.01 0.01 0.01 0.02 0.01 0.01 0.01 0.01 0.01 0.01 0.01 0.01 0.01 0.01 0.01 0.01 0.01 0.01 0.02 0.01 0.01 0.01 0.01 0.01 0.02 0.02 0.02
0.03 0.02 0.01 0.01 0.01 0.01 0.01 0.01 0.02 0.02 0.02 0.01 0.01 0.00 0.00 0.00 0.01 0.01 0.01 0.02 0.02 0.02 0.02 0.01 0.01 0.01 0.01 0.02 0.01 0.01 0.01 0.01 0.00 0.00 0.01 0.01 0.01 0.01 0.01 0.01 0.01 0.01 0.01 0.01
MSLP
1018.31 1018.72 1019.13 1019.50 1019.78 1019.95 1019.97 1019.83 1019.56 1019.18 1018.73 1018.28 1017.89 1017.58 1017.39 1017.31 1017.34 1017.45 1017.60 1017.78 1017.95 1018.12 1018.29 1018.47 1018.69 1018.95 1019.28 1019.66 1020.08 1020.53 1020.97 1021.40 1021.78 1022.11 1022.40 1022.64 1022.86 1023.07 1023.27 1023.48 1023.69 1023.90 1024.11 1024.32
1018.49 1018.79 1019.03 1019.20 1019.28 1019.26 1019.14 1018.92 1018.62 1018.28 1017.94 1017.63 1017.37 1017.20 1017.11 1017.08 1017.11 1017.17 1017.25 1017.32 1017.40 1017.49 1017.61 1017.78 1018.02 1018.34 1018.74 1019.21 1019.72 1020.24 1020.75 1021.22 1021.63 1021.99 1022.29 1022.55 1022.79 1023.01 1023.23 1023.45 1023.67 1023.87 1024.07 1024.26
1018.79 1018.97 1019.05 1019.03 1018.92 1018.73 1018.46 1018.16 1017.84 1017.53 1017.26 1017.04 1016.90 1016.82 1016.79 1016.79 1016.80 1016.81 1016.81 1016.80 1016.79 1016.82 1016.91 1017.07 1017.34 1017.71 1018.17 1018.70 1019.27 1019.84 1020.39 1020.88 1021.31 1021.68 1022.00 1022.28 1022.54 1022.79 1023.03 1023.27 1023.49 1023.70 1023.89 1024.05
1019.13 1019.18 1019.11 1018.93 1018.66 1018.32 1017.95 1017.58 1017.23 1016.94 1016.72 1016.57 1016.49 1016.47 1016.47 1016.47 1016.46 1016.42 1016.35 1016.27 1016.20 1016.18 1016.24 1016.41 1016.69 1017.09 1017.58 1018.14 1018.74 1019.32 1019.88 1020.37 1020.80 1021.18 1021.50 1021.80 1022.08 1022.36 1022.64 1022.91 1023.16 1023.39 1023.57 1023.71
1019.38 1019.31 1019.11 1018.79 1018.40 1017.96 1017.52 1017.10 1016.75 1016.47 1016.29 1016.18 1016.15 1016.15 1016.17 1016.16 1016.12 1016.04 1015.92 1015.78 1015.67 1015.62 1015.67 1015.82 1016.11 1016.51 1017.00 1017.56 1018.14 1018.71 1019.24 1019.71 1020.12 1020.49 1020.82 1021.13 1021.45 1021.77 1022.09 1022.41 1022.70 1022.95 1023.14 1023.28
1019.39 1019.21 1018.90 1018.50 1018.03 1017.54 1017.06 1016.64 1016.30 1016.06 1015.91 1015.85 1015.84 1015.87 1015.88 1015.87 1015.81 1015.69 1015.54 1015.38 1015.25 1015.18 1015.21 1015.35 1015.62 1016.00 1016.47 1016.98 1017.52 1018.04 1018.52 1018.95 1019.33 1019.68 1020.01 1020.34 1020.69 1021.05 1021.43 1021.80 1022.13 1022.42 1022.63 1022.78
1019.05 1018.78 1018.40 1017.94 1017.45 1016.95 1016.50 1016.11 1015.82 1015.63 1015.53 1015.51 1015.54 1015.58 1015.61 1015.60 1015.53 1015.41 1015.25 1015.09 1014.95 1014.87 1014.88 1015.01 1015.25 1015.58 1016.00 1016.45 1016.92 1017.37 1017.78 1018.16 1018.50 1018.82 1019.15 1019.50 1019.88 1020.28 1020.70 1021.11 1021.48 1021.80 1022.04 1022.20
1018.33 1017.98 1017.56 1017.10 1016.62 1016.17 1015.78 1015.46 1015.24 1015.12 1015.09 1015.12 1015.20 1015.28 1015.34 1015.35 1015.30 1015.20 1015.05 1014.90 1014.77 1014.70 1014.70 1014.80 1015.00 1015.29 1015.63 1016.01 1016.40 1016.77 1017.11 1017.43 1017.72 1018.02 1018.34 1018.69 1019.08 1019.50 1019.94 1020.38 1020.77 1021.11 1021.37 1021.53
1017.27 1016.89 1016.46 1016.02 1015.60 1015.22 1014.92 1014.70 1014.57 1014.53 1014.58 1014.68 1014.82 1014.95 1015.05 1015.11 1015.10 1015.04 1014.94 1014.82 1014.72 1014.66 1014.66 1014.74 1014.90 1015.12 1015.39 1015.69 1015.99 1016.29 1016.56 1016.82 1017.08 1017.35 1017.64 1017.98 1018.36 1018.77 1019.20 1019.62 1020.01 1020.34 1020.58 1020.74
1016.01 1015.62 1015.22 1014.84 1014.49 1014.21 1014.00 1013.88 1013.85 1013.91 1014.03 1014.21 1014.40 1014.60 1014.76 1014.88 1014.94 1014.94 1014.91 1014.84 1014.78 1014.75 1014.75 1014.81 1014.93 1015.09 1015.29 1015.52 1015.74 1015.97 1016.19 1016.39 1016.61 1016.84 1017.10 1017.40 1017.74 1018.10 1018.48 1018.85 1019.19 1019.47 1019.68 1019.82
1014.72 1014.35 1014.01 1013.70 1013.44 1013.26 1013.15 1013.12 1013.18 1013.30 1013.49 1013.73 1013.98 1014.24 1014.47 1014.66 1014.80 1014.89 1014.93 1014.95 1014.94 1014.94 1014.96 1015.00 1015.08 1015.20 1015.34 1015.50 1015.66 1015.83 1015.99 1016.16 1016.33 1016.52 1016.73 1016.97 1017.23 1017.52 1017.80 1018.08 1018.32 1018.53 1018.67 1018.76
1013.56 1013.25 1012.97 1012.75 1012.59 1012.49 1012.46 1012.50 1012.61 1012.78 1013.02 1013.29 1013.59 1013.90 1014.20 1014.47 1014.70 1014.88 1015.02 1015.11 1015.17 1015.22 1015.26 1015.30 1015.36 1015.43 1015.52 1015.63 1015.74 1015.86 1015.98 1016.10 1016.23 1016.37 1016.52 1016.68 1016.85 1017.02 1017.19 1017.34 1017.46 1017.55 1017.61 1017.63
1012.62 1012.38 1012.19 1012.06 1011.97 1011.94 1011.97 1012.05 1012.18 1012.37 1012.62 1012.91 1013.24 1013.60 1013.96 1014.30 1014.62 1014.90 1015.14 1015.32 1015.46 1015.56 1015.63 1015.68 1015.72 1015.76 1015.81 1015.87 1015.94 1016.02 1016.10 1016.19 1016.27 1016.36 1016.44 1016.52 1016.58 1016.63 1016.66 1016.67 1016.66 1016.62 1016.58 1016.52
1011.91 1011.75 1011.65 1011.60 1011.58 1011.60 1011.66 1011.75 1011.88 1012.07 1012.30 1012.59 1012.93 1013.32 1013.73 1014.15 1014.56 1014.94 1015.28 1015.56 1015.77 1015.93 1016.04 1016.11 1016.14 1016.16 1016.18 1016.20 1016.23 1016.27 1016.31 1016.37 1016.41 1016.45 1016.47 1016.46 1016.42 1016.35 1016.25 1016.13 1015.99 1015.84 1015.70 1015.56
1011.34 1011.27 1011.26 1011.28 1011.32 1011.37 1011.44 1011.53 1011.65 1011.80 1012.01 1012.29 1012.63 1013.04 1013.50 1013.99 1014.49 1014.97 1015.41 1015.79 1016.09 1016.32 1016.47 1016.55 1016.59 1016.60 1016.59 1016.57 1016.57 1016.58 1016.59 1016.61 1016.62 1016.62 1016.58 1016.50 1016.38 1016.22 1016.02 1015.79 1015.54 1015.30 1015.06 1014.86
1010.80 1010.82 1010.88 1010.97 1011.06 1011.14 1011.22 1011.30 1011.39 1011.52 1011.71 1011.97 1012.32 1012.76 1013.26 1013.82 1014.41 1014.99 1015.53 1016.00 1016.39 1016.68 1016.88 1017.00 1017.04 1017.04 1017.01 1016.97 1016.94 1016.92 1016.90 1016.90 1016.88 1016.84 1016.77 1016.65 1016.47 1016.25 1015.98 1015.67 1015.36 1015.04 1014.75 1014.49
1010.19 1010.29 1010.42 1010.57 1010.71 1010.82 1010.91 1010.98 1011.06 1011.18 1011.36 1011.62 1011.98 1012.45 1013.01 1013.64 1014.31 1014.98 1015.62 1016.18 1016.65 1017.02 1017.27 1017.42 1017.48 1017.47 1017.43 1017.38 1017.32 1017.27 1017.24 1017.21 1017.17 1017.12 1017.02 1016.88 1016.69 1016.43 1016.13 1015.79 1015.44 1015.09 1014.75 1014.46
1009.47 1009.63 1009.83 1010.04 1010.22 1010.37 1010.48 1010.56 1010.65 1010.78 1010.96 1011.24 1011.64 1012.14 1012.76 1013.46 1014.20 1014.96 1015.68 1016.33 1016.88 1017.31 1017.61 1017.79 1017.87 1017.88 1017.83 1017.76 1017.69 1017.63 1017.58 1017.53 1017.49 1017.43 1017.34 1017.20 1017.00 1016.75 1016.45 1016.10 1015.74 1015.38 1015.03 1014.70
1008.68 1008.90 1009.15 1009.41 1009.64 1009.83 1009.97 1010.09 1010.21 1010.36 1010.58 1010.90 1011.33 1011.89 1012.56 1013.32 1014.13 1014.95 1015.75 1016.46 1017.07 1017.55 1017.90 1018.12 1018.22 1018.24 1018.20 1018.13 1018.05 1017.97 1017.92 1017.87 1017.82 1017.76 1017.68 1017.55 1017.37 1017.13 1016.85 1016.53 1016.18 1015.82 1015.46 1015.12
1007.93 1008.20 1008.50 1008.80 1009.08 1009.31 1009.50 1009.67 1009.84 1010.04 1010.30 1010.67 1011.15 1011.75 1012.47 1013.27 1014.13 1015.00 1015.83 1016.59 1017.24 1017.76 1018.14 1018.39 1018.52 1018.55 1018.52 1018.45 1018.37 1018.30 1018.23 1018.18 1018.14 1018.08 1018.01 1017.89 1017.73 1017.52 1017.26 1016.96 1016.63 1016.28 1015.92 1015.57
1007.38 1007.68 1008.02 1008.36 1008.68 1008.96 1009.20 1009.42 1009.65 1009.90 1010.23 1010.64 1011.17 1011.81 1012.55 1013.37 1014.25 1015.13 1015.97 1016.74 1017.41 1017.94 1018.34 1018.60 1018.75 1018.80 1018.79 1018.73 1018.65 1018.58 1018.51 1018.46 1018.41 1018.36 1018.28 1018.18 1018.03 1017.84 1017.60 1017.31 1016.99 1016.65 1016.29 1015.92
1007.14 1007.46 1007.83 1008.20 1008.55 1008.88 1009.17 1009.45 1009.73 1010.05 1010.42 1010.88 1011.44 1012.09 1012.84 1013.66 1014.51 1015.37 1016.19 1016.94 1017.58 1018.11 1018.50 1018.77 1018.92 1018.99 1018.98 1018.94 1018.87 1018.80 1018.73 1018.68 1018.62 1018.56 1018.48 1018.37 1018.22 1018.03 1017.79 1017.51 1017.19 1016.85 1016.48 1016.10
1007.26 1007.61 1007.99 1008.39 1008.76 1009.12 1009.46 1009.79 1010.13 1010.49 1010.91 1011.40 1011.97 1012.63 1013.35 1014.13 1014.94 1015.74 1016.50 1017.20 1017.79 1018.27 1018.64 1018.89 1019.05 1019.11 1019.12 1019.08 1019.02 1018.95 1018.88 1018.81 1018.74 1018.66 1018.57 1018.44 1018.28 1018.07 1017.82 1017.53 1017.21 1016.85 1016.48 1016.09
1007.74 1008.09 1008.48 1008.89 1009.29 1009.67 1010.05 1010.42 1010.80 1011.21 1011.66 1012.17 1012.74 1013.38 1014.06 1014.78 1015.51 1016.23 1016.91 1017.52 1018.04 1018.46 1018.78 1019.00 1019.13 1019.19 1019.20 1019.16 1019.10 1019.02 1018.95 1018.86 1018.77 1018.67 1018.55 1018.39 1018.20 1017.96 1017.69 1017.38 1017.03 1016.66 1016.27 1015.87
1008.46 1008.82 1009.21 1009.62 1010.03 1010.44 1010.84 1011.25 1011.67 1012.12 1012.60 1013.12 1013.68 1014.28 1014.91 1015.56 1016.20 1016.82 1017.39 1017.90 1018.33 1018.68 1018.93 1019.11 1019.21 1019.24 1019.23 1019.19 1019.12 1019.04 1018.94 1018.84 1018.72 1018.59 1018.42 1018.23 1018.00 1017.73 1017.43 1017.08 1016.71 1016.32 1015.91 1015.49
1009.31 1009.66 1010.05 1010.46 1010.88 1011.30 1011.74 1012.18 1012.64 1013.12 1013.62 1014.14 1014.69 1015.26 1015.83 1016.40 1016.96 1017.47 1017.94 1018.35 1018.68 1018.94 1019.12 1019.23 1019.29 1019.29 1019.25 1019.19 1019.10 1019.00 1018.88 1018.75 1018.60 1018.42 1018.22 1017.99 1017.72 1017.41 1017.06 1016.68 1016.28 1015.85 1015.41 1014.97
1010.16 1010.51 1010.89 1011.30 1011.73 1012.17 1012.63 1013.11 1013.60 1014.11 1014.63 1015.16 1015.70 1016.24 1016.76 1017.27 1017.74 1018.16 1018.53 1018.83 1019.07 1019.24 1019.34 1019.39 1019.39 1019.35 1019.27 1019.17 1019.05 1018.92 1018.77 1018.60 1018.42 1018.20 1017.96 1017.68 1017.37 1017.01 1016.63 1016.21 1015.76 1015.29 1014.81 1014.32
Thickness
5668 5675 5678 5678 5680 5681 5675 5670 5664 5673 5680 5690 5697 5700 5704 5707 5709 5708 5707 5707 5707 5705 5704 5703 5701 5700 5699 5697 5695 5693 5690 5687 5685 5683 5681 5679 5678 5676 5676 5674 5673 5671 5670 5669
5661 5671 5672 5671 5677 5679 5678 5678 5675 5677 5680 5696 5700 5699 5700 5702 5704 5703 5703 5705 5705 5703 5702 5700 5699 5698 5696 5694 5692 5690 5686 5684 5682 5679 5677 5675 5673 5672 5670 5669 5667 5666 5664 5663
5643 5656 5661 5655 5672 5675 5676 5681 5679 5673 5682 5692 5691 5693 5696 5698 5701 5701 5701 5702 5702 5701 5700 5699 5698 5697 5694 5692 5690 5686 5683 5680 5678 5676 5673 5671 5670 5667 5665 5663 5662 5660 5659 5659
5634 5642 5634 5659 5680 5680 5676 5678 5682 5684 5686 5689 5691 5694 5697 5698 5696 5696 5698 5699 5699 5699 5698 5697 5696 5695 5693 5689 5686 5682 5679 5676 5674 5672 5669 5667 5664 5662 5660 5659 5657 5655 5654 5654
5624 5625 5636 5658 5672 5673 5668 5667 5676 5677 5680 5682 5686 5687 5688 5695 5696 5696 5697 5698 5697 5697 5696 5694 5693 5691 5688 5684 5681 5678 5675 5673 5671 5668 5665 5662 5659 5658 5656 5654 5652 5651 5650 5649
5619 5620 5623 5648 5669 5677 5669 5656 5670 5674 5674 5675 5675 5665 5673 5687 5690 5693 5694 5694 5694 5693 5691 5689 5688 5687 5683 5679 5676 5674 5673 5671 5668 5665 5662 5659 5656 5654 5652 5650 5648 5647 5645 5644
5615 5615 5628 5650 5665 5668 5645 5648 5665 5669 5670 5670 5667 5669 5677 5683 5685 5687 5689 5689 5689 5688 5686 5685 5684 5682 5678 5675 5672 5673 5671 5668 5664 5662 5659 5657 5653 5651 5648 5645 5642 5641 5639 5638
5610 5609 5623 5651 5655 5646 5647 5657 5662 5664 5666 5666 5667 5672 5674 5677 5679 5681 5681 5682 5683 5682 5679 5679 5678 5676 5673 5670 5670 5668 5666 5663 5660 5658 5656 5653 5649 5646 5643 5640 5636 5634 5633 5631
5617 5623 5638 5647 5647 5651 5653 5653 5657 5659 5661 5663 5662 5665 5668 5670 5672 5674 5675 5675 5676 5675 5673 5672 5671 5670 5666 5666 5664 5662 5659 5657 5655 5653 5651 5649 5645 5641 5638 5635 5632 5629 5627 5626
5615 5625 5634 5639 5643 5647 5649 5649 5653 5655 5657 5659 5659 5661 5662 5663 5664 5666 5667 5667 5668 5668 5666 5665 5665 5664 5662 5660 5659 5656 5652 5650 5649 5647 5644 5643 5641 5638 5635 5632 5629 5626 5624 5622
5609 5619 5626 5632 5635 5638 5642 5645 5647 5649 5651 5653 5654 5655 5656 5656 5658 5659 5661 5662 5661 5661 5660 5659 5659 5657 5656 5654 5652 5649 5646 5644 5643 5641 5639 5637 5635 5634 5633 5632 5631 5627 5624 5622
5604 5613 5612 5620 5628 5633 5634 5636 5639 5642 5644 5647 5648 5649 5650 5651 5652 5653 5653 5655 5654 5654 5654 5653 5652 5651 5650 5648 5646 5643 5639 5638 5637 5634 5633 5631 5629 5627 5628 5628 5628 5626 5624 5621
5609 5614 5616 5620 5624 5627 5628 5630 5634 5637 5638 5639 5642 5644 5645 5645 5646 5646 5647 5648 5648 5648 5648 5647 5646 5644 5644 5643 5641 5638 5635 5633 5632 5630 5628 5626 5624 5623 5621 5620 5621 5620 5619 5617
5608 5609 5609 5613 5615 5620 5623 5625 5628 5631 5632 5634 5635 5637 5638 5638 5639 5640 5640 5642 5642 5642 5642 5641 5640 5639 5639 5637 5635 5633 5631 5629 5627 5625 5623 5622 5621 5619 5617 5615 5613 5612 5612 5612
5602 5603 5604 5608 5610 5614 5617 5618 5618 5621 5624 5626 5628 5629 5631 5631 5632 5633 5635 5636 5636 5636 5635 5635 5633 5632 5633 5632 5630 5628 5625 5623 5622 5620 5619 5617 5616 5615 5613 5611 5609 5607 5605 5604
5594 5597 5599 5601 5603 5606 5608 5609 5610 5613 5616 5619 5621 5622 5624 5625 5626 5627 5628 5629 5628 5628 5628 5628 5628 5628 5627 5626 5624 5622 5620 5620 5618 5615 5613 5611 5610 5609 5607 5606 5604 5602 5601 5599
5583 5586 5590 5592 5595 5597 5600 5603 5605 5608 5610 5612 5615 5616 5617 5618 5618 5619 5621 5622 5623 5623 5623 5623 5622 5622 5622 5621 5619 5616 5615 5613 5612 5610 5609 5607 5606 5604 5603 5601 5599 5597 5596 5595
5581 5583 5586 5588 5589 5591 5594 5597 5600 5603 5605 5607 5609 5609 5609 5609 5610 5611 5613 5614 5614 5615 5615 5616 5617 5616 5615 5614 5613 5611 5609 5608 5606 5605 5604 5602 5601 5599 5597 5595 5593 5591 5589 5587
5575 5577 5580 5583 5585 5586 5588 5591 5594 5597 5599 5600 5601 5601 5603 5603 5604 5604 5605 5606 5606 5606 5607 5609 5610 5609 5608 5607 5606 5605 5603 5601 5599 5598 5597 5596 5594 5592 5590 5588 5586 5585 5583 5580
5570 5572 5574 5576 5579 5581 5583 5586 5588 5590 5592 5593 5594 5594 5595 5596 5597 5597 5598 5598 5599 5601 5602 5602 5602 5601 5600 5599 5599 5597 5595 5593 5591 5589 5588 5587 5585 5584 5582 5580 5578 5576 5575 5573
5562 5564 5567 5569 5571 5574 5578 5580 5582 5583 5585 5587 5587 5588 5588 5589 5590 5591 5591 5590 5592 5593 5594 5595 5594 5594 5593 5592 5590 5588 5587 5585 5583 5581 5580 5578 5576 5575 5573 5572 5570 5568 5567 5564
5555 5556 5559 5561 5564 5566 5570 5572 5574 5576 5578 5579 5581 5581 5581 5581 5582 5583 5584 5585 5586 5586 5586 5586 5586 5587 5586 5584 5582 5580 5579 5577 5575 5573 5571 5570 5568 5566 5565 5563 5561 5560 5558 5556
5547 5549 5551 5554 5556 5558 5561 5564 5566 5568 5570 5572 5573 5573 5573 5573 5574 5574 5574 5577 5578 5579 5579 5579 5580 5579 5578 5576 5574 5572 5571 5569 5567 5565 5564 5562 5560 5559 5557 5556 5554 5552 5550 5547
5540 5542 5544 5546 5548 5550 5552 5555 5557 5560 5561 5563 5565 5566 5566 5565 5565 5567 5569 5570 5571 5571 5571 5572 5572 5571 5570 5567 5566 5564 5563 5561 5559 5558 5556 5554 5552 5551 5549 5547 5545 5543 5541 5539
5533 5535 5536 5538 5539 5542 5544 5546 5548 5550 5552 5554 5555 5556 5558 5559 5558 5559 5560 5561 5562 5563 5563 5564 5564 5563 5562 5560 5558 5557 5555 5554 5552 5550 5548 5546 5544 5542 5541 5539 5537 5535 5533 5531
5524 5525 5528 5530 5532 5533 5535 5537 5538 5541 5543 5544 5545 5546 5548 5549 5550 5551 5552 5553 5554 5555 5555 5555 5554 5554 5553 5552 5550 5549 5547 5545 5542 5541 5539 5538 5536 5534 5532 5531 5529 5527 5525 5522
5515 5517 5518 5521 5523 5524 5526 5528 5530 5532 5534 5535 5536 5537 5539 5540 5541 5542 5544 5544 5545 5546 5546 5545 5545 5545 5544 5543 5541 5540 5538 5536 5534 5532 5530 5529 5528 5526 5524 5522 5520 5518 5516 5513